GSAT0202 (GALILEO 6)

Last updated on Sat Sep 19 2026 00:02:48 GMT+0000 (Coordinated Universal Time)

1 40129U 14050B 26261.37757956 .00000005 00000+0 00000+0 0 9995 2 40129 48.7952 268.6916 1688641 183.6970 174.8925 1.85520415 82219
UTC large
Height (km)
Speed (km/s)
/
Latitude / Longitude
Inclination (degrees)
Orbital Period (minutes)
Azimuth
Elevation
Range (km)
Doppler Factor

Next 0 passes for location: London (51.5072 / 0.1276)

No passes found over London.
GSAT0202 (GALILEO 6)